Location: Home
(42.5358°N, 72.7383°W)
Time: 19:58:25
(UTC-05:00)

Explorer 7 - Pass Details

Date: 01 December 2021
Orbit: 483 x 674 km, 50.3° (Epoch: 23 January)

Event Time Altitude Azimuth Distance (km) Brightness Sun altitude
Rises 11:32:15 0° 301° (WNW) 2,611 10.0 25.5°
Reaches altitude 10° 11:34:30 10° 305° (NW) 1,703 9.1 25.5°
Maximum altitude 11:38:17 60° 26° (NNE) 562 6.9 25.6°
Drops below altitude 10° 11:41:59 10° 108° (ESE) 1,659 9.6 25.6°
Sets 11:44:09 0° 112° (ESE) 2,536 10.5 25.5°
